Location: Sears
(37.7625°N, 100.1060°W)
Time: 21:56:25
(UTC+00:00)

Meteor 1-31 Rocket - Pass Details

Date: 29 October 2020
Orbit: 521 x 546 km, 97.6° (Epoch: 01 December)

Event Time Altitude Azimuth Distance (km) Brightness Sun altitude
Rises 12:05:45 0° 360° (N) 2,721 6.3 -11.9°
Reaches altitude 10° 12:08:03 10° 349° (N) 1,823 5.3 -11.5°
Maximum altitude 12:11:29 29° 289° (WNW) 1,007 3.6 -10.8°
Drops below altitude 10° 12:14:54 10° 228° (SW) 1,805 5.1 -10.1°
Sets 12:17:11 0° 217° (SW) 2,689 6.1 -9.7°
